Regional Weather Roundup
Issued by NWS Green Bay, WI

Home | Current Version | Previous Version | Graphics & Text | Print | Product List | Glossary Off
Versions: 1 2 3 4 5 6 7 8 9 10 11 12 13 14 15 16 17 18 19 20 21 22 23 24 25 26 27 28 29 30 31 32 33 34 35 36 37 38 39 40 41 42 43 44 45 46 47 48 49 50

000
ASUS43 KGRB 241410
RWRGRB

NORTH-CENTRAL AND NORTHEAST WISCONSIN REGIONAL WEATHER ROUNDUP
NATIONAL WEATHER SERVICE GREEN BAY WI
900 AM CDT FRI OCT 24 2014

WIZ005-009-010>012-018-019-241500-
NORTH CENTRAL WISCONSIN

CITY           SKY/WX    TMP DP  RH WIND       PRES   REMARKS
IRONWOOD       CLOUDY    48  46  93 S12       29.89F
MANITOWISH WTR FOG       44  44 100 SW7       29.96R VSB 1/2
ARBOR VITAE    FOG       44  43  97 S6        29.97R VSB 1/4
EAGLE RIVER    FOG       43  43 100 CALM      29.97S VSB 1/4
LAND O LAKES   FOG       44  44 100 SW5       29.97S VSB 1/2
RHINELANDER    FOG       43  43 100 S6        29.99S VSB 1/4
PHILLIPS       FOG       44  44 100 S6        29.97S VSB 3/4
ANTIGO         FOG       43  43 100 SW5       30.00S VSB 1/4
TOMAHAWK       FOG       43  43  98 CALM      30.00S VSB 1/2
MERRILL        FOG       44  44 100 SW3       30.00S VSB 1/2
$$

WIZ013-073-241500-
NORTHEAST WISCONSIN

CITY           SKY/WX    TMP DP  RH WIND       PRES   REMARKS
IRON MOUNTAIN  FOG       43  42  97 S3        29.98S VSB 3/4
MARINETTE      CLOUDY    46  45  93 SW9       29.99F
OCONTO         CLOUDY    46  46 100 SW6       30.01F
$$

WIZ017-030-035>037-045-241500-
CENTRAL WISCONSIN

CITY           SKY/WX    TMP DP  RH WIND       PRES   REMARKS
MEDFORD        FOG       44  44 100 SE5       29.99F VSB 1/4
WAUSAU         FOG       45  45 100 S3        30.00R VSB 1/4
MOSINEE        FOG       45  45 100 CALM      30.01S VSB 1/8
MARSHFIELD     FOG       46  45  96 S6        30.00R VSB<1/4
WISC RAPIDS    FOG       46  46 100 S6        30.03S VSB 1/4
STEVENS POINT  FOG       44  44 100 S5        30.01F VSB 1/4
WAUPACA        CLOUDY    48  47  96 SW3       30.03S FOG
SHAWANO        CLOUDY    48  46  95 SW5       30.02S FOG
CLINTONVILLE   CLOUDY    46  45  93 SW6       30.02S FOG
$$

WIZ038-039-048-051-241500-
FOX VALLEY

CITY           SKY/WX    TMP DP  RH WIND       PRES   REMARKS
NWS GREEN BAY  CLOUDY    48  47  96 W6        30.02F FOG
APPLETON         N/A     46  46 100 VRB6      30.03S FOG
OSHKOSH        CLOUDY    48  47  96 CALM      30.03S FOG
FOND DU LAC    CLOUDY    48  46  93 SW5       30.04S
$$

WIZ022-050-052-241500-
EAST CENTRAL WISCONSIN

CITY           SKY/WX    TMP DP  RH WIND       PRES   REMARKS
STURGEON BAY   CLOUDY    48  45  87 SW8       30.01F
MANITOWOC      CLOUDY    50  48  93 W6        30.03F
SHEBOYGAN      CLOUDY    49  46  90 W6        30.04S
$$

LMZ563-521-522-541>543-241500-
LAKESHORE

STATION/POSITION TIME  TEMP    WIND        PRES    VSBY  WAVE
                       AIR SEA DIR/SP/G                  HT/PER
                 (UTC) (F)     (DEG/KT/KT) (MB)    (MI)  (FT/S)
SHEBOYGAN LKSHOR 1400   49 50  260/  4/  6 1017.7F
KEWAUNEE LKSHORE 1400   49     240/  3/  4 1015.8S
NORTHPORT PIER   1400   49     200/  2/  5 1015.9S
N MID LAKE BUOY  1400   50 51  240/ 10/ 10 1016.3R         2/ 5
SISTER BAY LKSHO 1400          270/  8/ 10   N/A
CHAMBERS ISLAND  1400   48     210/  3/  9 1016.3F
MENOMINEE LKSHOR 1400   47     200/  6/  8 1016.4F
$$



USA.gov is the U.S. government's official web portal to all federal, state and local government web resources and services.